EW4363 Weather Reports


time (UTC)temp
C
wind
direction
speed
KPH
gust
KPH
rain 1hr
cm
rain 24hr
cm
rain mn
cm
humidity
%
barometer
mb
20260502220811 17 281 3.2 4.8 0.00 0.00 0.00 77 1018.2
20260502220304 17 280 1.6 4.8 0.00 0.00 0.00 77 1018.2
20260502215804 17 284 0.0 1.6 0.00 0.00 0.00 77 1018.4
20260502215305 17 284 1.6 3.2 0.00 0.00 0.00 77 1018.4
20260502214804 17 286 0.0 1.6 0.00 0.00 0.00 78 1018.4
20260502214304 17 286 0.0 4.8 0.00 0.00 0.00 78 1018.4
20260502213804 17 277 0.0 3.2 0.00 0.00 0.00 78 1018.3
20260502213304 17 333 0.0 1.6 0.00 0.00 0.00 78 1018.4
20260502212804 17 313 0.0 3.2 0.00 0.00 0.00 77 1018.5
20260502212305 17 283 0.0 0.0 0.00 0.00 0.00 77 1018.6
20260502211804 17 283 0.0 1.6 0.00 0.00 0.00 77 1018.6
20260502211304 17 284 1.6 4.8 0.00 0.00 0.00 77 1018.6
20260502210804 17 280 0.0 1.6 0.00 0.00 0.00 77 1018.6
20260502210304 17 280 0.0 3.2 0.00 0.00 0.00 77 1018.5
20260502205804 17 280 0.0 4.8 0.00 0.00 0.00 77 1018.5
20260502205305 17 290 0.0 1.6 0.00 0.00 0.00 77 1018.6
20260502204804 17 286 0.0 3.2 0.00 0.00 0.00 77 1018.6
20260502204304 17 302 0.0 1.6 0.00 0.00 0.00 77 1018.6
20260502203804 17 251 0.0 1.6 0.00 0.00 0.00 77 1018.6
20260502203304 17 322 0.0 1.6 0.00 0.00 0.00 77 1018.7
20260502202804 17 323 0.0 3.2 0.00 0.00 0.00 77 1018.7
20260502202305 17 323 0.0 3.2 0.00 0.00 0.00 77 1018.5
20260502201804 17 269 0.0 4.8 0.00 0.00 0.00 76 1018.4
20260502201304 17 332 0.0 1.6 0.00 0.00 0.00 77 1018.6
20260502200804 17 296 0.0 1.6 0.00 0.00 0.00 77 1018.6
20260502200304 17 276 0.0 4.8 0.00 0.00 0.00 76 1018.4
20260502195804 17 285 0.0 1.6 0.00 0.00 0.00 76 1018.3
20260502193804 17 272 0.0 1.6 0.00 0.00 0.00 75 1018.2
20260502193304 17 306 0.0 3.2 0.00 0.00 0.00 75 1018.2
20260502192804 17 288 1.6 3.2 0.00 0.00 0.00 75 1018.1
20260502192305 17 306 0.0 4.8 0.00 0.00 0.00 75 1018.1
20260502191304 17 329 0.0 1.6 0.00 0.00 0.00 75 1018.2
20260502190804 17 326 1.6 4.8 0.00 0.00 0.00 74 1018.2
20260502190305 17 272 0.0 3.2 0.00 0.00 0.00 74 1018.1
20260502185305 17 328 0.0 3.2 0.00 0.00 0.00 73 1018.2
20260502184804 18 330 0.0 4.8 0.00 0.00 0.00 72 1018.2
20260502183805 18 319 0.0 4.8 0.00 0.00 0.00 72 1018.1
20260502183305 18 326 0.0 3.2 0.00 0.00 0.00 71 1018.2
20260502182804 18 294 0.0 3.2 0.00 0.00 0.00 71 1018.1
20260502182305 18 320 1.6 4.8 0.00 0.00 0.00 70 1018.2
20260502181804 18 328 0.0 4.8 0.00 0.00 0.00 69 1018.3
20260502181304 18 324 0.0 3.2 0.00 0.00 0.00 69 1018.2
20260502180804 18 324 1.6 4.8 0.00 0.00 0.00 68 1018.1
20260502180304 18 276 0.0 3.2 0.00 0.00 0.00 67 1018.1
20260502170304 19 327 3.2 4.8 0.00 0.00 0.00 64 1018.4
20260502163304 20 323 3.2 8.0 0.00 0.00 0.00 58 1018.9
20260502162804 20 327 1.6 4.8 0.00 0.00 0.00 57 1018.8
20260502162305 20 319 3.2 9.7 0.00 0.00 0.00 56 1018.7
20260502161805 20 324 4.8 8.0 0.00 0.00 0.00 55 1018.7
20260502161305 20 319 3.2 11.3 0.00 0.00 0.00 55 1018.6
20260502160804 20 313 1.6 9.7 0.00 0.00 0.00 54 1018.6
20260502160304 20 290 1.6 4.8 0.00 0.00 0.00 56 1018.7
20260502152305 20 323 3.2 11.3 0.00 0.00 0.00 59 1019.2
20260502151805 21 323 3.2 8.0 0.00 0.00 0.00 57 1019.1
20260502151304 21 319 3.2 4.8 0.00 0.00 0.00 56 1019.3
20260502150804 21 325 1.6 4.8 0.00 0.00 0.00 54 1019.3
20260502130304 22 322 3.2 9.7 0.00 0.00 0.00 53 1020.5
20260502123305 22 320 3.2 4.8 0.00 0.00 0.00 51 1020.5
20260502122804 22 321 3.2 4.8 0.00 0.00 0.00 51 1020.6
20260502122306 22 314 1.6 8.0 0.00 0.00 0.00 51 1020.7
20260502121804 22 324 1.6 3.2 0.00 0.00 0.00 50 1020.7
20260502120805 21 298 0.0 1.6 0.00 0.00 0.00 51 1020.8
20260502120304 21 319 0.0 0.0 0.00 0.00 0.00 52 1020.9
20260502115804 21 320 0.0 8.0 0.00 0.00 0.00 52 1020.9
20260502115306 21 313 3.2 9.7 0.00 0.00 0.00 51 1020.9
20260502114804 21 283 1.6 8.0 0.00 0.00 0.00 50 1020.9
20260502114305 21 302 1.6 4.8 0.00 0.00 0.00 51 1021.0
20260502113305 21 312 0.0 3.2 0.00 0.00 0.00 53 1021.1
20260502112804 21 295 0.0 4.8 0.00 0.00 0.00 55 1021.1
20260502112306 21 276 0.0 1.6 0.00 0.00 0.00 56 1021.2
20260502111804 20 280 0.0 1.6 0.00 0.00 0.00 56 1021.3
20260502110804 20 298 1.6 4.8 0.00 0.00 0.00 56 1021.3
20260502110304 20 302 1.6 4.8 0.00 0.00 0.00 57 1021.4
20260502105805 20 337 0.0 4.8 0.00 0.00 0.00 57 1021.4
20260502105306 20 324 0.0 4.8 0.00 0.00 0.00 57 1021.4
20260502104804 20 330 0.0 4.8 0.00 0.00 0.00 58 1021.4
20260502104304 20 326 1.6 3.2 0.00 0.00 0.00 58 1021.5
20260502102306 20 325 1.6 4.8 0.00 0.00 0.00 59 1021.8
20260502101804 20 323 1.6 4.8 0.00 0.00 0.00 58 1021.9
20260502101305 20 313 0.0 3.2 0.00 0.00 0.00 58 1022.0
20260502100805 20 316 0.0 3.2 0.00 0.00 0.00 58 1022.0
20260502100305 20 315 0.0 0.0 0.00 0.00 0.00 59 1022.1
20260502090805 18 257 0.0 1.6 0.00 0.00 0.00 65 1022.2
20260502090304 18 317 1.6 3.2 0.00 0.00 0.00 66 1022.2
20260502071304 17 326 0.0 1.6 0.00 0.00 0.00 72 1022.2
20260502070804 17 327 0.0 0.0 0.00 0.00 0.00 72 1022.3
20260502070304 17 326 0.0 3.2 0.00 0.00 0.00 72 1022.3
20260502065804 17 277 0.0 3.2 0.00 0.00 0.00 72 1022.3
20260502065306 17 277 0.0 3.2 0.00 0.00 0.00 73 1022.3
20260502064806 17 287 0.0 0.0 0.00 0.00 0.00 73 1022.4
20260502064305 17 287 0.0 0.0 0.00 0.00 0.00 73 1022.3
20260502063804 17 287 0.0 1.6 0.00 0.00 0.00 74 1022.3
20260502063305 17 290 0.0 1.6 0.00 0.00 0.00 74 1022.2
20260502062805 17 300 0.0 0.0 0.00 0.00 0.00 74 1022.2
20260502062306 17 300 0.0 4.8 0.00 0.00 0.00 75 1022.1
20260502061305 17 286 0.0 4.8 0.00 0.00 0.00 75 1022.0
20260502060805 17 278 1.6 3.2 0.00 0.00 0.00 75 1022.0
20260502060306 17 286 0.0 1.6 0.00 0.00 0.00 76 1022.1
20260502055804 17 331 1.6 3.2 0.00 0.00 0.00 76 1022.1
20260502054304 17 279 0.0 3.2 0.00 0.00 0.00 76 1022.0
20260502053805 17 279 0.0 1.6 0.00 0.00 0.00 76 1021.9
20260502052805 17 279 0.0 1.6 0.00 0.00 0.00 77 1021.9
20260502052306 17 279 1.6 4.8 0.00 0.00 0.00 77 1021.9
20260502051805 17 282 1.6 3.2 0.00 0.00 0.00 76 1021.9
20260502051305 17 281 0.0 1.6 0.00 0.00 0.00 77 1021.9
20260502050805 17 282 0.0 3.2 0.00 0.00 0.00 77 1021.9
20260502045804 17 319 0.0 0.0 0.00 0.00 0.00 76 1021.8
20260502045306 17 321 0.0 3.2 0.00 0.00 0.00 76 1021.8
20260502044805 17 322 0.0 1.6 0.00 0.00 0.00 76 1021.8
20260502044305 17 324 0.0 0.0 0.00 0.00 0.00 77 1021.8
20260502043804 17 324 0.0 0.0 0.00 0.00 0.00 77 1021.8
20260502043305 17 324 0.0 0.0 0.00 0.00 0.00 77 1021.8
20260502042306 17 324 1.6 3.2 0.00 0.00 0.00 77 1021.9
20260502041805 17 324 0.0 3.2 0.00 0.00 0.00 77 1021.8
20260502041305 17 326 0.0 3.2 0.00 0.00 0.00 77 1021.8
20260502040805 17 326 0.0 3.2 0.00 0.00 0.00 77 1021.8
20260502040305 17 325 1.6 4.8 0.00 0.00 0.00 77 1021.7
20260502035805 17 325 0.0 4.8 0.00 0.00 0.00 77 1021.7
20260502035306 17 323 0.0 1.6 0.00 0.00 0.00 77 1021.7
20260502034805 17 323 1.6 4.8 0.00 0.00 0.00 78 1021.7
20260502034305 17 323 0.0 1.6 0.00 0.00 0.00 78 1021.7
20260502033305 17 326 1.6 3.2 0.00 0.00 0.00 78 1021.8
20260502032306 17 326 0.0 0.0 0.00 0.00 0.00 78 1021.7
20260502031805 17 328 0.0 0.0 0.00 0.00 0.00 78 1021.7
20260502031306 17 328 0.0 1.6 0.00 0.00 0.00 78 1021.7
20260502030804 17 327 0.0 3.2 0.00 0.00 0.00 78 1021.7
20260502030305 17 310 0.0 0.0 0.00 0.00 0.00 78 1021.8
20260502025805 17 310 0.0 1.6 0.00 0.00 0.00 78 1021.8
20260502025306 17 317 0.0 3.2 0.00 0.00 0.00 77 1021.8
20260502024305 17 282 0.0 3.2 0.00 0.00 0.00 78 1021.8
20260502023805 17 280 0.0 1.6 0.00 0.00 0.00 78 1021.8
20260502023305 17 280 1.6 4.8 0.00 0.00 0.00 78 1021.9
20260502021805 17 282 1.6 4.8 0.00 0.00 0.00 78 1021.9
20260502021305 17 292 1.6 4.8 0.00 0.00 0.00 77 1021.9
20260502020804 17 280 1.6 3.2 0.00 0.00 0.00 77 1022.0
20260502020305 17 281 1.6 4.8 0.00 0.00 0.00 77 1022.0
20260502015805 17 290 1.6 4.8 0.00 0.00 0.00 77 1022.0
20260502015305 17 282 1.6 4.8 0.00 0.00 0.00 76 1022.0
20260502014805 17 307 0.0 1.6 0.00 0.00 0.00 75 1022.1
20260502014305 17 309 0.0 1.6 0.00 0.00 0.00 74 1022.1
20260502013806 17 336 0.0 0.0 0.00 0.00 0.00 74 1022.1
20260502013305 17 336 0.0 0.0 0.00 0.00 0.00 74 1022.1
20260502012805 17 336 0.0 3.2 0.00 0.00 0.00 74 1022.1
20260502012306 17 283 1.6 4.8 0.00 0.00 0.00 75 1022.1
20260502011806 17 281 0.0 0.0 0.00 0.00 0.00 75 1022.0
20260502010305 17 281 0.0 1.6 0.00 0.00 0.00 75 1022.2
20260502005805 17 281 0.0 1.6 0.00 0.00 0.00 74 1022.2
20260502005306 17 281 0.0 1.6 0.00 0.00 0.00 73 1022.3
20260502004804 17 281 0.0 0.0 0.00 0.00 0.00 73 1022.4
20260502004305 17 281 0.0 1.6 0.00 0.00 0.00 72 1022.5
20260502003805 17 281 0.0 1.6 0.00 0.00 0.00 72 1022.5
20260502003304 17 281 0.0 3.2 0.00 0.00 0.00 72 1022.6
20260502002805 17 281 0.0 1.6 0.00 0.00 0.00 72 1022.7
20260502002306 17 281 0.0 1.6 0.00 0.00 0.00 73 1022.7
20260502001804 17 281 1.6 3.2 0.00 0.00 0.00 74 1022.8
20260502000805 17 281 0.0 0.0 0.00 0.00 0.00 79 1022.9
20260501235804 17 281 0.0 0.0 0.00 0.00 0.00 77 1023.0
20260501235305 17 281 0.0 0.0 0.00 0.00 0.00 76 1023.1
20260501234804 17 281 0.0 0.0 0.00 0.00 0.00 78 1023.1
20260501234305 17 281 0.0 0.0 0.00 0.00 0.00 78 1023.1
20260501233304 17 281 0.0 1.6 0.00 0.00 0.00 78 1023.2
20260501232806 17 281 0.0 3.2 0.00 0.00 0.00 78 1023.2
20260501232306 17 308 0.0 0.0 0.00 0.00 0.00 78 1023.2
20260501231805 17 324 0.0 0.0 0.00 0.00 0.00 79 1023.3
20260501231305 17 324 0.0 0.0 0.00 0.00 0.00 79 1023.3
20260501230804 17 324 0.0 0.0 0.00 0.00 0.00 79 1023.4
20260501230305 17 324 0.0 0.0 0.00 0.00 0.00 79 1023.3
20260501225306 17 324 0.0 0.0 0.00 0.00 0.00 80 1023.2
20260501224804 17 324 0.0 0.0 0.00 0.00 0.00 80 1023.2
20260501223805 17 324 0.0 0.0 0.00 0.00 0.00 80 1023.1
20260501223304 17 323 0.0 0.0 0.00 0.00 0.00 80 1023.1
20260501222804 17 323 0.0 0.0 0.00 0.00 0.00 80 1023.1
20260501222305 16 323 0.0 0.0 0.00 0.00 0.00 80 1023.1
20260501221805 16 323 0.0 0.0 0.00 0.00 0.00 80 1023.1